User: anonymous   Login
Location: Unspecified
(0.0000°N, 0.0000°E)
Time: 15:48:37
(UTC+02:00)
Language:

Iridium 4 Rocket - Orbit

View from above orbital plane
View from above orbital plane
View from above satellite
View from above satellite

Ground track
Ground track

The orbit data is extracted from the following two-line orbital elements,

1 24797U 97020F   14294.73210685  .00001129  00000-0  24192-3 0  8026
2 24797 086.8974 348.2519 0225503 308.6504 167.0506 14.43230826918071
Epoch (UTC): 21 October 2014 17:34:14
Eccentricity: 0.0225503
inclination: 86.8974°
perigee height: 587 km
apogee height: 908 km
right ascension of ascending node: 348.2519°
argument of perigee: 308.6504°
revolutions per day: 14.43230826
mean anomaly at epoch: 167.0506°
orbit number at epoch: 91807

The dashed part of the orbit path shows where the satellite is in the earth's shadow,  

DLR